THOR ABLESTAR DEB, 407

Orbit data source: Space-Track

THOR ABLESTAR DEB, 407 is space debris in LEO originally from a launch on Thu, 29 Jun 1961 UTC launched from the Air Force Eastern Test Range (AFETR). Debris objects in space refer to the collection of defunct objects orbiting the Earth. Examples of debris include non-operational satellites, rocket bodies, and fragments generated from explosions, collisions, or faulty payload assembly.

Loading next visibility...
THOR ABLESTAR DEB details
Identifier
407, 1961-015EG
Orbit
LEO
Last TLE update12 hours ago
Origin
Flag of USUSAF SSD (US)
ManufacturerUnknown
MissionSpacecraft
Bus & MotorUnknown
MassUnknown
Launch date (UTC)
1961-06-29 (64 years ago)
Launch vehicleUnknown
Launch site
Air Force Eastern Test Range (AFETR)
Object type
Payload
Rocket body
Debris
Shape & HBRUnknown
Radar Cross SectionMedium (>0.1 m² and <1 m²)

Expand to show TLE details & history

TLE from 12 hours ago
0 THOR ABLESTAR DEB
1 00407U 61015EG  25014.87167937  .00045981  00000-0  45893-2 0  9992
2 00407  66.3102 170.8464 0040188 268.3304 250.4677 14.90657031254949
Epoch: 2025-01-14T20:55Z
Definitive object data (Epoch: 2025-01-14T20:55:13.097Z)
Latitude19.75038°
Longitude-86.54437°
Altitude607.047 km
Speed7.553 km/s
True Right ascension22h 47m 19s
True Declination19° 38' 20"
Sunlit
Object was in daylight at TLE epoch
Visualization TLE readout
Latitude60.02014°
Longitude150.09904°
Altitude631.822 km
Speed7.534 km/s
Apparent Right ascension19h 14m 44s
Apparent Declination22° 22' 15"
Sunlit
Object is in daylight
Visualization observer readout
Local Sidereal Time10:04:21
Azimuth40.503° NE
Elevation-16.23°
Doppler factor1
Orbital elements
Apogee altitude622.282 km
Perigee altitude566.241 km
Semi-major axis6,972.399 km
Eccentricity0.0040188
Inclination66.3102°
RAAN170.8464°
Arg. of periapsis268.3304°
True anomaly250.03441°
Mean anomaly250.4677°
Eccentric anomaly250.25098°
Mean motion3.72795 °/min
BSTAR0.0045893
Orbital period96.57 mins
Loading maneuver chart data...

THOR ABLESTAR DEB Visibility forecast

Observer location: undefined°, undefined

Span
Click to sort rows by Start time (UTC) header in descending order
Start Az.
Max El. time (UTC)
Max El. Az.
Max El.
End time (UTC)
End Az.
4 mins2025-01-15 10:50:29.215Z139.761° SSE2025-01-15 10:52:29.215Z108.687° ESE16.778°2025-01-15 10:54:29.215Z77.299° E
7 mins2025-01-15 12:28:29.215Z237.91° WSW2025-01-15 12:31:29.215Z308.206° NW35.448°2025-01-15 12:35:29.215Z17.161° NNE
6 mins2025-01-15 20:55:29.215Z335.401° NNW2025-01-15 20:58:29.215Z116.419° SE43.4°2025-01-15 21:01:29.215Z146.209° SSE
|